Preview of NWS' New Version of Forecast
This preview is not operational and should not be used for support decisions.

Regional Weather Roundup (RWR)

Issued by National Weather Service (NWS)

                            
000
ASUS43 KLSX 181657
RWRMO 

WEATHER SUMMARY FOR MISSOURI
NATIONAL WEATHER SERVICE SPRINGFIELD MO
1200 PM CDT TUE JUN 18 2019

NOTE: "FAIR" INDICATES FEW OR NO CLOUDS BELOW 12,000 FEET WITH NO
       SIGNIFICANT WEATHER AND/OR OBSTRUCTIONS TO VISIBILITY.
       CURRENT SKY AND/OR WEATHER CONDITIONS ARE NOT AVAILABLE FOR
       CHILLICOTHE AND FARMINGTON.

MOZ001>031-035>038-043-044-053-054-181800-
...NORTHERN AND WESTERN MISSOURI...
  
CITY           SKY/WX    TMP DP  RH WIND       PRES   REMARKS
KANSAS CTY INT MOSUNNY   77  63  61 NE3       29.95F                  
LEE'S SUMMIT   PTSUNNY   75  63  66 VRB5      29.96S                  
ST JOSEPH      MOSUNNY   78  64  61 E7        29.94F                  
CHILLICOTHE      N/A     74  64  71 CALM      29.97S                  
     
$$
MOZ066>068-077>081-088>096-101>105-181800-
...SOUTHWEST MISSOURI...
  
CITY           SKY/WX    TMP DP  RH WIND       PRES   REMARKS
SPRINGFIELD    PTSUNNY   77  68  73 CALM      29.95F                  
JOPLIN         MOSUNNY   79  69  71 VRB3      29.95S                  
BRANSON        PTSUNNY   75  66  73 CALM      29.97S                  
               
$$
MOZ032>034-039>042-045>050-055>058-069>072-181800-
...CENTRAL MISSOURI...  
  
CITY           SKY/WX    TMP DP  RH WIND       PRES   REMARKS
COLUMBIA       NOT AVBL                                               
ROLLA          MOSUNNY   77  67  71 CALM      29.95S                  
SEDALIA        CLOUDY    72  67  84 CALM      29.97S                  
WARRENSBURG    MOSUNNY   72  64  78 NE7       29.95F                  
OSAGE BEACH    CLOUDY    73  66  78 CALM      29.96S                  
               
$$
MOZ051-052-059>065-181800-
...EAST CENTRAL MISSOURI...
  
CITY           SKY/WX    TMP DP  RH WIND       PRES   REMARKS
ST LOUIS INTL  PTSUNNY   81  67  62 MISG      29.94S                  
                   
$$
MOZ072>076-082>087-097>100-106>115-181800-
...SOUTH CENTRAL AND SOUTHEAST MISSOURI...
  
CITY           SKY/WX    TMP DP  RH WIND       PRES   REMARKS
CAPE GIRARDEAU FAIR      80  67  64 CALM      29.91F                  
POPLAR BLUFF   CLOUDY    78  71  79 SE3       29.92S                  
WEST PLAINS    LGT RAIN  75  68  78 E3        29.96R                  
                                       
$$